User: anonymous   Login
Location: Bartlow
(52.0833°N, 0.3167°E)
Time: 15:41:52
(UTC+00:00)
Language:

Cosmos 2360 Rocket - Orbit

View from above orbital plane
View from above orbital plane
View from above satellite
View from above satellite

Ground track
Ground track

The orbit data is extracted from the following two-line orbital elements,

1 25407U 98045B   24062.04520200  .00000084  00000-0  66793-4 0  9998
2 25407  71.0104 292.5905 0005401  63.0558 297.1116 14.15973667322948
Epoch (UTC): 02 March 2024 01:05:05
Eccentricity: 0.0005401
inclination: 71.0104°
perigee height: 835 km
apogee height: 843 km
right ascension of ascending node: 292.5905°
argument of perigee: 63.0558°
revolutions per day: 14.15973667
mean anomaly at epoch: 297.1116°
orbit number at epoch: 32294

The dashed part of the orbit path shows where the satellite is in the earth's shadow,  

DLR